(140241) = 2001 SW249

Discovered at Socorro on 2001-09-19 by LINEAR.

Orbit

Orbit type: Main Belt

Note: WebGL enabled browser required.

epoch2024-03-31.0
epoch JD2460400.5
perihelion date2020-08-24.55612
perihelion JD2459086.05612
argument of perihelion (°)259.42835
ascending node (°)71.40844
inclination (°)2.92546
eccentricity0.0874820
perihelion distance (AU)2.6267696
Tisserand w.r.t. Jupiter3.3
ΔV w.r.t. Earth (km/sec)10.2
semimajor axis (AU)2.8785947
mean anomaly (°)265.26204
mean daily motion (°/day)0.20180550
aphelion distance (AU)3.130
period (years)4.88
P-vector [x]0.87202090
P-vector [y]-0.42675677
P-vector [z]-0.23970442
Q-vector [x]0.48707244
Q-vector [y]0.80497209
Q-vector [z]0.33879253
absolute magnitude15.83
phase slope0.15
uncertainty0
referenceMPEC 2024-F50
observations used633
oppositions19
arc length (days)9131
first opposition used1999
last opposition used2024
residual rms (arc-secs)0.77
perturbers coarse indicatorM-v
perturbers precise indicator003Ek
first observation date used1999-03-20.0
last observation date used2024-03-19.0
computer nameMPCLINUX
JD of orbit computation2456847.810110
perihelion JD uncertainty (days)1.6485E-04
argument of perihelion uncertainty (°)8.3648E-05
ascending node uncertainty (°)7.6955E-05
inclination uncertainty (°)4.1978E-06
eccentricity uncertainty 3.7391E-08
perihelion distance uncertainty (AU)1.1355E-07
Minimum Orbit Intersection Distances (in AU)
for orbit epoch: 2460400.5, reference: E2024-GD4
Mercury2.21271
Venus1.89884
Earth1.61769
Mars1.24438
Jupiter2.14405
Saturn6.01194
Uranus15.3175
Neptune26.9988

Observations

645 total observations over interval: 1999 03 20.322892 – 2024 03 19.638164
These data are available for download (format description).

Date (UT) J2000 RA J2000 Dec Magn Location Ref
1999 03 20.322892 12 33 48.523 +00 40 24.57 20.26 V 645 – Apache Point-Sloan Digital Sky Survey MPS 182414
1999 03 20.326364 12 33 48.360 +00 40 25.60 21.14   645 – Apache Point-Sloan Digital Sky Survey MPS 182414
1999 03 22.316420 12 32 16.024 +00 50 11.62 20.17 V 645 – Apache Point-Sloan Digital Sky Survey MPS 79931
1999 03 22.319892 12 32 15.857 +00 50 12.59 21.05   645 – Apache Point-Sloan Digital Sky Survey MPS 79931
2001 09 19.39312 02 20 14.49 +10 34 07.5 19.7   704 – Lincoln Laboratory ETS, New Mexico MPS 36801
2001 09 19.40738 02 20 14.09 +10 34 07.2 19.9   704 – Lincoln Laboratory ETS, New Mexico MPS 36801
2001 09 19.42162 02 20 13.70 +10 34 05.4 19.6   704 – Lincoln Laboratory ETS, New Mexico MPS 36801
2001 09 19.45020 02 20 13.06 +10 34 01.4 19.8   704 – Lincoln Laboratory ETS, New Mexico MPS 36801
2001 09 21.41198 02 19 27.55 +10 29 52.0 19.1   704 – Lincoln Laboratory ETS, New Mexico MPS 36801
2001 09 21.42623 02 19 27.12 +10 29 49.7 19.3   704 – Lincoln Laboratory ETS, New Mexico MPS 36801
2001 09 21.44048 02 19 26.77 +10 29 48.5 20.1   704 – Lincoln Laboratory ETS, New Mexico MPS 36801
2001 09 21.45474 02 19 26.43 +10 29 46.7 19.7   704 – Lincoln Laboratory ETS, New Mexico MPS 36801
2001 09 21.46899 02 19 26.01 +10 29 45.2 19.6   704 – Lincoln Laboratory ETS, New Mexico MPS 36801
2001 09 27.42136 02 16 34.41 +10 14 43.5 19.8   644 – Palomar Mountain/NEAT MPS 36801
2001 09 27.43254 02 16 34.01 +10 14 41.8 20.4   644 – Palomar Mountain/NEAT MPS 36801
2001 09 27.44452 02 16 33.60 +10 14 39.7 20.0   644 – Palomar Mountain/NEAT MPS 36801
2001 10 13.25219 02 05 38.86 +09 21 41.2 19.3   704 – Lincoln Laboratory ETS, New Mexico MPS 38283
2001 10 13.26784 02 05 38.04 +09 21 38.7 19.6   704 – Lincoln Laboratory ETS, New Mexico MPS 38283
2001 10 13.29948 02 05 36.48 +09 21 31.6 19.6   704 – Lincoln Laboratory ETS, New Mexico MPS 38283
2001 10 17.26633 02 02 20.87 +09 06 28.4 19.9   704 – Lincoln Laboratory ETS, New Mexico MPS 39407
2001 10 17.29829 02 02 19.16 +09 06 20.2 19.7   704 – Lincoln Laboratory ETS, New Mexico MPS 39407
2001 10 17.31463 02 02 18.31 +09 06 15.3 20.2   704 – Lincoln Laboratory ETS, New Mexico MPS 39407
2001 10 18.34561 02 01 26.30 +09 02 19.6 19.3   644 – Palomar Mountain/NEAT MPS 40653
2001 10 18.36720 02 01 25.17 +09 02 14.5 19.4   644 – Palomar Mountain/NEAT MPS 40653
2001 10 18.39023 02 01 23.93 +09 02 09.3 19.8   644 – Palomar Mountain/NEAT MPS 40653
2001 10 20.34018 01 59 44.97 +08 54 40.8 18.0   704 – Lincoln Laboratory ETS, New Mexico MPS 40653
2001 10 20.35651 01 59 44.11 +08 54 37.1 18.5   704 – Lincoln Laboratory ETS, New Mexico MPS 40653
2001 10 20.37286 01 59 43.27 +08 54 32.7 18.7   704 – Lincoln Laboratory ETS, New Mexico MPS 40653
2001 10 20.38922 01 59 42.39 +08 54 29.2 18.8   704 – Lincoln Laboratory ETS, New Mexico MPS 40653
2001 10 23.26831 01 57 15.39 +08 43 30.5 18.7   704 – Lincoln Laboratory ETS, New Mexico MPS 40653
2001 10 23.28471 01 57 14.51 +08 43 27.1 19.2   704 – Lincoln Laboratory ETS, New Mexico MPS 40653
2001 10 23.30111 01 57 13.64 +08 43 23.4 19.5   704 – Lincoln Laboratory ETS, New Mexico MPS 40653
2001 10 23.31753 01 57 12.74 +08 43 18.8 19.5   704 – Lincoln Laboratory ETS, New Mexico MPS 40653
2001 10 23.33395 01 57 11.84 +08 43 16.1 19.6   704 – Lincoln Laboratory ETS, New Mexico MPS 40653
2001 10 24.25274 01 56 25.14 +08 39 49.2 19.3   704 – Lincoln Laboratory ETS, New Mexico MPS 40653
2001 10 24.28582 01 56 23.29 +08 39 43.3 19.5   704 – Lincoln Laboratory ETS, New Mexico MPS 40653
2001 10 24.30235 01 56 22.40 +08 39 38.5 19.9   704 – Lincoln Laboratory ETS, New Mexico MPS 40653
2001 10 24.31890 01 56 21.56 +08 39 36.1 19.4   704 – Lincoln Laboratory ETS, New Mexico MPS 40653
2002 12 28.29065 08 26 11.89 +22 08 42.5 21.0 V 291 – LPL/Spacewatch II MPS 71498
2002 12 28.30151 08 26 11.47 +22 08 44.8 21.4 V 291 – LPL/Spacewatch II MPS 71498
2002 12 28.31239 08 26 10.98 +22 08 47.4 21.2 V 291 – LPL/Spacewatch II MPS 71498
2003 01 25.192850 08 02 17.651 +23 44 37.31 20.25 V 645 – Apache Point-Sloan Digital Sky Survey MPS 79931
2003 01 25.196322 08 02 17.455 +23 44 37.93 21.12   645 – Apache Point-Sloan Digital Sky Survey MPS 79931
2003 01 26.29080 08 01 17.33 +23 47 51.1 20.5   644 – Palomar Mountain/NEAT MPS 71498
2003 01 26.35569 08 01 13.69 +23 48 03.2 21.5   644 – Palomar Mountain/NEAT MPS 71498
2003 01 26.41836 08 01 10.15 +23 48 14.2 20.8   644 – Palomar Mountain/NEAT MPS 71498
2003 02 04.25386 07 53 28.56 +24 10 56.7 20.4   644 – Palomar Mountain/NEAT MPS 73226
2003 02 04.32529 07 53 24.95 +24 11 06.3 20.9   644 – Palomar Mountain/NEAT MPS 73226
2003 02 04.39654 07 53 21.33 +24 11 15.5 20.7   644 – Palomar Mountain/NEAT MPS 73226
2004 03 28.33447 13 07 50.92 -03 15 29.1 19.6 C 704 – Lincoln Laboratory ETS, New Mexico MPS 294217
2004 03 28.36533 13 07 49.41 -03 15 20.3 19.5 C 704 – Lincoln Laboratory ETS, New Mexico MPS 294217
2004 03 28.37551 13 07 49.06 -03 15 17.0 19.4 C 704 – Lincoln Laboratory ETS, New Mexico MPS 294217
2006 09 30.42521 03 04 31.29 +14 41 03.5 19.8 V G96 – Mt. Lemmon Survey MPS 182477
2006 09 30.43257 03 04 31.11 +14 41 03.5 19.7 V G96 – Mt. Lemmon Survey MPS 182477
2006 09 30.43993 03 04 30.93 +14 41 02.4 19.8 V G96 – Mt. Lemmon Survey MPS 182477
2006 09 30.44721 03 04 30.75 +14 41 01.5 19.8 V G96 – Mt. Lemmon Survey MPS 182477
2006 10 11.36797 02 59 02.59 +14 20 26.3   691 – Steward Observatory, Kitt Peak-Spacewatch MPS 182414
2006 10 11.38536 02 59 01.90 +14 20 24.2   691 – Steward Observatory, Kitt Peak-Spacewatch MPS 182414
2006 10 11.40276 02 59 01.22 +14 20 21.8   691 – Steward Observatory, Kitt Peak-Spacewatch MPS 182414
2006 10 15.34280 02 56 24.45 +14 10 40.5   691 – Steward Observatory, Kitt Peak-Spacewatch MPS 182771
2006 10 15.36076 02 56 23.69 +14 10 37.9   691 – Steward Observatory, Kitt Peak-Spacewatch MPS 182771
2006 10 15.37811 02 56 22.91 +14 10 35.3   691 – Steward Observatory, Kitt Peak-Spacewatch MPS 182771
2006 10 19.33281 02 53 28.34 +13 59 52.8 20.0 V 691 – Steward Observatory, Kitt Peak-Spacewatch MPS 182771
2006 10 19.35027 02 53 27.50 +13 59 49.9 20.2 V 691 – Steward Observatory, Kitt Peak-Spacewatch MPS 182771
2006 10 19.36772 02 53 26.66 +13 59 46.7 20.0 V 691 – Steward Observatory, Kitt Peak-Spacewatch MPS 182771
2006 10 21.48226 02 51 47.07 +13 53 42.2 20.7 R 644 – Palomar Mountain/NEAT MPS 185275
2006 10 21.50259 02 51 46.08 +13 53 38.6 19.9 R 644 – Palomar Mountain/NEAT MPS 185275
2006 10 21.52287 02 51 45.15 +13 53 35.0 20.6 R 644 – Palomar Mountain/NEAT MPS 185275
2006 10 23.32468 02 50 17.76 +13 48 15.4 19.9 V 691 – Steward Observatory, Kitt Peak-Spacewatch MPS 183921
2006 10 23.34210 02 50 16.87 +13 48 12.3 19.9 V 691 – Steward Observatory, Kitt Peak-Spacewatch MPS 183921
2006 10 23.36249 02 50 15.81 +13 48 08.5 19.9 V 691 – Steward Observatory, Kitt Peak-Spacewatch MPS 183921
2006 10 27.33881 02 46 55.17 +13 35 58.6 20.1 V 691 – Steward Observatory, Kitt Peak-Spacewatch MPS 185275
2006 10 27.35666 02 46 54.24 +13 35 55.2 20.1 V 691 – Steward Observatory, Kitt Peak-Spacewatch MPS 185275
2006 10 27.37407 02 46 53.32 +13 35 51.9 19.8 V 691 – Steward Observatory, Kitt Peak-Spacewatch MPS 185275
2006 10 31.31685 02 43 27.55 +13 23 29.4   691 – Steward Observatory, Kitt Peak-Spacewatch MPS 185275
2006 10 31.33423 02 43 26.59 +13 23 25.8   691 – Steward Observatory, Kitt Peak-Spacewatch MPS 185275
2006 10 31.35180 02 43 25.63 +13 23 22.2   691 – Steward Observatory, Kitt Peak-Spacewatch MPS 185275
2006 11 11.28558 02 33 51.51 +12 49 33.4 20.1 V 703 – Catalina Sky Survey MPS 186808
2006 11 11.29664 02 33 50.94 +12 49 29.4 18.9 V 703 – Catalina Sky Survey MPS 186808
2006 11 11.30771 02 33 50.25 +12 49 28.7 19.5 V 703 – Catalina Sky Survey MPS 186808
2006 11 11.31876 02 33 49.68 +12 49 26.7 18.9 V 703 – Catalina Sky Survey MPS 186808
2006 11 15.25997 02 30 32.68 +12 38 14.7 19.5 V G96 – Mt. Lemmon Survey MPS 186808
2006 11 15.26772 02 30 32.32 +12 38 13.4 19.4 V G96 – Mt. Lemmon Survey MPS 186808
2006 11 15.27560 02 30 31.93 +12 38 12.2 19.5 V G96 – Mt. Lemmon Survey MPS 186808
2006 11 15.28353 02 30 31.50 +12 38 10.7 19.7 V G96 – Mt. Lemmon Survey MPS 186808
